Location: Unspecified
(49.2170°N, 0.0000°E)
Time: 17:12:47
(UTC+00:00)

A-11 Canister half - Pass Details

Date: 28 January 2021
Orbit: 1516 x 1684 km, 47.2° (Epoch: 05 March)

Event Time Altitude Azimuth Distance (km) Brightness Sun altitude
Rises 19:27:02 0° 230° (SW) 4,774 12.3 -25.5°
Reaches altitude 10° 19:30:13 10° 226° (SW) 3,768 11.6 -26.0°
Maximum altitude 19:39:22 55° 152° (SSE) 1,800 9.1 -27.5°
Enters shadow 19:41:11 49° 117° (ESE) 1,911 9.0 -27.8°
